TimeMST,TemperatureF,Dew PointF,Humidity,Sea Level PressureIn,VisibilityMPH,Wind Direction,Wind SpeedMPH,Gust SpeedMPH,PrecipitationIn,Events,Conditions,WindDirDegrees,DateUTC
12:53 AM,39.0,26.1,60,30.11,10.0,West,8.1,-,N/A,,Overcast,270,2013-02-01 07:53:00
1:53 AM,39.0,26.1,60,30.12,10.0,WSW,5.8,-,N/A,,Overcast,250,2013-02-01 08:53:00
2:53 AM,37.9,28.0,68,30.12,10.0,WSW,11.5,-,N/A,,Overcast,240,2013-02-01 09:53:00
3:53 AM,34.0,30.0,85,30.12,10.0,Calm,Calm,-,N/A,,Mostly Cloudy,0,2013-02-01 10:53:00
4:53 AM,37.0,30.0,76,30.10,10.0,West,16.1,23.0,0.00,,Overcast,270,2013-02-01 11:53:00
5:53 AM,36.0,30.0,79,30.11,10.0,West,9.2,-,N/A,,Clear,270,2013-02-01 12:53:00
6:53 AM,37.0,28.9,73,30.13,10.0,WSW,10.4,-,N/A,,Overcast,240,2013-02-01 13:53:00
7:53 AM,37.0,26.1,65,30.15,10.0,West,10.4,-,N/A,,Mostly Cloudy,280,2013-02-01 14:53:00
8:53 AM,37.9,27.0,65,30.17,10.0,West,12.7,20.7,N/A,,Mostly Cloudy,270,2013-02-01 15:53:00
9:53 AM,41.0,27.0,57,30.20,10.0,WSW,16.1,23.0,N/A,,Mostly Cloudy,250,2013-02-01 16:53:00
10:53 AM,39.9,25.0,55,30.22,10.0,WNW,9.2,-,N/A,,Mostly Cloudy,290,2013-02-01 17:53:00
11:53 AM,39.9,23.0,51,30.21,10.0,WNW,13.8,24.2,N/A,,Scattered Clouds,290,2013-02-01 18:53:00
12:53 PM,43.0,24.1,47,30.19,10.0,West,24.2,33.4,N/A,,Clear,280,2013-02-01 19:53:00
1:53 PM,42.8,21.2,42,30.10,10.0,West,20.7,33.4,N/A,,Clear,280,2013-02-01 20:53:00
2:53 PM,43.0,23.0,45,30.19,10.0,West,18.4,26.5,N/A,,Scattered Clouds,270,2013-02-01 21:53:00
3:53 PM,41.0,21.0,45,30.23,10.0,West,23.0,38.0,N/A,,Clear,280,2013-02-01 22:53:00
4:53 PM,41.0,21.0,45,30.26,10.0,West,20.7,28.8,N/A,,Overcast,270,2013-02-01 23:53:00
5:53 PM,39.0,21.9,50,30.29,10.0,West,13.8,21.9,N/A,,Overcast,270,2013-02-02 00:53:00
6:53 PM,37.9,21.9,53,30.31,10.0,West,18.4,23.0,N/A,,Mostly Cloudy,270,2013-02-02 01:53:00
7:53 PM,37.0,21.0,52,30.33,10.0,West,16.1,20.7,N/A,,Scattered Clouds,280,2013-02-02 02:53:00
8:53 PM,37.0,21.9,54,30.34,10.0,West,16.1,21.9,N/A,,Partly Cloudy,280,2013-02-02 03:53:00
9:53 PM,36.0,21.0,55,30.36,10.0,WSW,8.1,-,N/A,,Partly Cloudy,250,2013-02-02 04:53:00
10:53 PM,37.0,19.9,50,30.36,10.0,West,18.4,25.3,N/A,,Clear,270,2013-02-02 05:53:00
11:53 PM,36.0,21.0,55,30.38,10.0,West,16.1,-,N/A,,Clear,260,2013-02-02 06:53:00